RH
57 60 63 63 59 60 60 63 67 76 86 91 94 94 93 93 94 93 89 87 84 84 85 86 85 86 86 82 74 73 81 80 78 87 84 78 72 72 74 74 74 72 70
61 62 64 66 66 66 65 60 59 65 80 91 94 93 95 97 94 83 71 74 72 74 72 88 92 95 96 95 94 95 88 84 87 88 90 95 83 85 79 77 77 76 72
63 65 66 69 70 70 70 62 61 58 60 70 79 80 77 76 76 74 67 68 67 62 64 68 74 79 90 96 96 97 94 95 84 86 93 96 91 83 82 90 83 80 78
73 68 66 67 68 70 68 66 63 62 59 65 62 69 72 75 81 80 74 69 70 68 63 66 70 74 75 73 74 65 88 92 92 88 84 90 91 90 90 74 76 88 82
68 69 70 67 71 70 72 71 65 66 68 67 70 69 74 79 78 77 72 74 71 72 64 65 73 74 74 77 80 77 80 85 86 89 92 91 88 88 93 93 80 75 76
71 71 70 68 71 74 73 74 70 73 74 71 76 77 79 76 71 76 70 73 73 74 65 65 70 74 72 74 74 80 85 88 90 89 86 90 91 92 94 93 88 89 77
72 72 70 71 72 73 74 71 74 78 78 76 76 78 79 79 80 79 78 73 66 67 63 67 68 68 68 65 66 75 84 84 90 88 88 88 88 85 86 87 86 87 78
72 71 70 72 73 74 77 78 77 78 78 79 79 79 77 76 76 76 74 71 71 72 62 64 65 63 60 53 56 68 77 76 85 91 91 83 78 80 86 89 91 89 79
71 70 72 73 75 77 80 80 78 77 75 78 79 78 75 73 72 72 72 70 67 50 52 64 63 54 45 47 58 54 50 59 78 81 82 80 78 82 89 91 87 89 90
70 70 73 74 76 82 84 79 78 76 73 74 76 72 70 67 65 63 62 62 59 58 57 50 48 38 40 40 58 42 37 55 54 46 71 74 78 81 84 74 74 79 84
68 70 74 75 82 86 79 74 72 71 70 71 70 65 62 58 55 56 56 55 54 53 48 46 40 38 38 37 52 34 35 47 43 53 57 77 76 63 64 65 76 76 74
66 72 76 83 89 82 75 70 68 67 67 68 61 56 53 53 52 53 52 49 50 47 42 43 38 36 37 40 37 35 46 46 50 52 63 57 48 60 59 66 64 68 74
69 77 82 90 88 80 71 64 63 63 64 61 54 50 49 50 49 49 48 44 43 40 38 39 39 36 39 36 34 35 40 44 49 60 52 45 43 44 54 59 63 65 64
69 76 92 95 90 74 66 61 59 58 54 45 47 45 46 46 45 45 44 43 43 42 39 37 37 37 37 35 33 40 45 48 52 53 47 43 44 53 60 56 63 63 76
71 88 96 94 83 72 64 59 56 52 41 41 42 38 43 43 43 45 45 44 44 39 39 38 36 37 37 28 43 45 48 51 50 47 47 49 56 59 57 57 68 72 73
72 94 92 89 83 70 62 56 48 50 38 37 34 41 42 44 46 45 44 44 42 40 41 40 40 40 34 48 52 51 51 50 51 55 54 54 58 58 64 65 63 61 65
88 93 89 84 68 63 58 55 37 36 35 38 37 40 43 46 46 44 43 43 43 45 43 42 42 43 42 52 55 57 51 55 58 59 59 58 53 65 67 67 65 64 64
93 89 83 72 64 60 52 33 28 29 33 37 39 42 45 46 46 46 46 48 45 45 45 44 45 46 42 55 58 60 56 59 60 60 62 64 72 73 61 60 71 83 83
86 79 75 69 59 48 34 29 29 34 36 36 41 44 46 48 48 48 48 47 47 48 47 46 47 50 49 58 61 60 58 60 62 62 63 72 68 62 64 82 88 75 76
74 73 63 54 38 32 30 28 32 34 33 38 44 46 48 50 50 51 50 50 51 48 48 50 50 54 53 60 63 59 57 63 65 66 84 65 57 66 70 58 64 85 72
69 64 52 34 28 27 32 34 32 33 39 45 47 49 50 52 51 52 54 52 54 54 56 54 52 55 58 62 63 62 55 59 77 87 64 58 68 89 60 61 66 71 63
64 49 36 30 30 32 35 36 34 42 47 50 52 53 54 50 44 57 57 60 60 60 56 57 60 60 61 63 63 63 62 63 68 65 61 70 88 62 62 65 68 68 69
50 43 41 34 37 39 40 42 44 48 51 54 55 55 54 54 55 64 60 61 58 58 60 61 67 66 62 63 67 66 72 68 60 63 76 79 66 64 66 69 68 69 74
49 43 38 37 38 41 43 47 49 52 56 59 59 58 61 57 62 60 61 66 61 64 60 67 70 71 68 69 65 72 74 66 74 91 78 66 63 66 67 69 70 72 77
46 41 41 41 43 48 49 51 51 56 56 58 57 58 57 68 67 65 64 60 58 64 65 65 66 72 74 65 62 67 59 66 78 57 61 64 68 72 72 72 73 75 77
44 44 44 45 47 52 53 53 54 57 63 58 54 56 60 70 62 63 63 59 61 61 61 62 62 57 62 65 68 65 67 73 60 59 72 76 76 75 78 79 80 80 81
Wind_Speed
4 6 6 6 7 9 9 8 9 9 5 3 3 2 1 1 2 3 4 4 4 4 4 4 5 4 4 7 8 7 7 7 7 5 7 9 11 13 11 11 11 13 15
5 7 7 9 9 6 7 8 9 9 6 3 2 3 3 4 4 4 8 9 8 8 7 6 5 5 4 6 5 5 7 6 4 5 8 6 5 8 11 9 10 14 11
6 5 7 6 6 8 8 9 9 11 10 8 4 4 5 4 5 6 6 7 8 9 8 7 6 6 5 5 6 5 7 8 8 7 6 6 8 10 6 7 9 12 10
3 3 5 7 7 6 6 8 10 10 10 9 11 12 6 5 3 2 3 5 7 8 9 8 7 6 5 7 6 7 7 8 9 8 6 11 12 11 13 8 9 7 11
7 6 5 6 5 6 6 6 9 11 9 10 8 7 8 3 2 3 6 7 6 7 9 9 8 7 6 6 6 9 8 4 6 7 8 9 8 9 10 14 9 9 7
6 5 4 5 5 5 7 7 9 8 8 9 9 9 8 6 6 6 7 6 5 5 8 9 8 6 7 8 7 7 7 7 6 6 6 7 8 10 9 12 13 14 10
7 7 7 6 6 7 6 6 8 8 7 9 9 8 8 8 8 6 5 7 7 6 9 8 9 8 8 9 8 8 8 8 7 9 7 7 7 7 8 10 12 13 12
7 7 7 7 6 7 7 7 7 8 7 8 8 7 7 5 4 5 5 5 4 4 7 9 8 9 9 9 8 7 7 8 7 9 7 8 8 7 7 8 10 14 12
8 8 6 6 6 6 7 7 7 7 7 7 6 7 7 7 6 6 4 4 5 7 9 7 7 8 10 10 8 8 10 10 7 8 7 8 9 8 7 6 7 8 13
7 7 6 6 5 6 6 7 7 7 7 7 6 6 6 6 6 6 7 7 6 6 7 7 8 9 10 11 8 10 11 9 8 10 11 10 9 9 6 8 8 7 9
7 7 6 6 7 6 6 6 7 7 7 6 6 6 6 7 6 5 5 6 6 7 7 8 9 9 10 11 10 12 12 11 13 11 13 12 11 9 8 9 8 8 8
7 6 7 7 6 6 6 6 6 7 6 5 7 7 6 6 6 6 6 6 6 6 7 8 9 10 10 10 11 11 9 12 13 13 12 12 10 12 11 8 13 12 10
7 6 7 6 6 6 6 6 6 6 6 6 6 5 6 6 6 6 6 6 7 8 8 8 9 10 10 11 11 9 13 12 13 9 12 14 14 14 11 11 12 11 11
7 6 7 6 6 5 5 6 6 5 4 5 5 6 6 6 6 6 7 7 7 7 8 9 9 10 11 12 10 14 14 13 11 10 12 13 13 15 15 14 13 13 12
7 7 7 6 6 6 6 5 5 5 5 5 5 5 5 5 6 6 7 6 6 7 8 10 10 10 10 9 15 15 15 14 14 13 13 13 18 26 21 14 15 15 14
7 8 7 7 7 6 5 5 5 4 4 5 5 4 5 6 6 6 7 6 8 9 9 10 11 12 9 24 25 22 15 14 15 15 15 14 21 18 28 28 31 26 18
7 8 7 6 6 6 5 5 4 3 4 2 4 5 6 6 6 7 7 9 9 8 10 10 11 12 12 24 26 26 13 14 14 15 15 15 12 20 15 24 29 26 29
7 7 6 6 5 4 4 4 4 3 3 5 5 5 5 6 7 7 7 7 7 9 10 11 11 12 12 24 26 27 14 13 14 15 16 15 16 16 22 21 19 18 17
6 5 5 4 5 5 4 4 3 4 4 5 5 5 5 6 6 7 8 9 9 10 10 10 12 12 13 24 25 24 15 14 15 14 14 15 18 24 32 20 20 21 18
6 6 6 5 6 4 3 3 3 5 4 5 6 6 6 6 7 7 9 6 8 11 10 13 11 15 14 20 26 24 12 14 13 15 12 24 24 32 31 24 20 17 19
7 6 6 5 4 3 3 4 3 3 5 5 5 5 6 6 7 6 6 8 10 10 10 12 11 11 12 14 26 28 15 12 13 11 13 13 30 29 35 35 16 19 24
6 6 5 4 4 4 2 2 3 4 5 5 6 6 6 6 7 7 8 8 8 10 11 12 11 9 10 18 21 28 27 26 15 15 14 16 26 33 34 25 30 32 27
5 4 5 4 3 3 3 3 4 5 5 6 6 6 8 7 7 6 9 8 8 9 10 10 11 11 10 9 22 26 27 26 18 14 22 26 30 31 22 27 31 28 12
5 3 5 3 2 2 2 2 5 5 6 7 7 7 6 9 5 5 6 6 8 8 10 10 11 11 11 10 11 11 12 19 16 19 13 20 24 24 23 19 16 12 12
5 4 4 2 2 2 4 5 5 5 6 6 7 7 6 6 7 5 6 7 7 9 11 10 11 12 12 12 24 23 15 15 18 23 11 12 12 13 13 13 14 13 14
4 3 3 1 4 5 5 6 5 5 6 6 6 7 6 5 7 8 9 13 18 21 22 24 18 12 22 28 29 30 30 29 32 14 11 11 12 14 14 14 15 14 18
Wind_Direction
4 23 20 16 26 26 23 14 22 6 53 72 87 73 254 341 14 346 322 309 303 301 267 270 283 282 267 274 284 281 272 278 266 275 269 259 257 253 249 244 246 247 243
47 31 24 29 30 27 12 25 28 29 34 67 75 92 91 68 69 45 42 36 41 35 40 21 359 339 319 310 298 284 290 277 253 266 285 281 271 244 243 247 242 245 249
107 73 57 44 37 31 20 34 30 38 38 38 60 56 50 41 32 25 30 22 31 32 29 22 14 1 358 344 327 314 299 291 287 245 261 292 282 307 263 243 243 246 242
117 114 89 64 50 33 28 41 45 43 40 33 64 68 68 68 26 22 8 19 23 26 23 16 9 359 351 355 344 345 334 328 314 305 248 253 278 294 300 273 274 248 253
152 131 109 95 70 60 51 48 59 54 47 56 61 71 72 67 36 23 27 17 10 17 19 9 1 357 351 337 330 335 336 318 322 317 319 312 302 291 294 304 303 305 284
159 143 120 110 87 68 60 54 68 52 45 59 56 68 68 54 45 24 24 9 2 4 10 1 356 346 343 339 331 323 321 317 312 311 312 310 311 310 310 302 303 296 297
168 157 138 118 99 84 76 73 71 63 54 63 58 54 57 52 47 28 17 9 4 3 358 353 350 347 341 337 331 325 315 313 309 310 309 310 308 304 301 304 306 304 308
177 168 157 133 118 108 92 82 75 74 57 57 55 49 47 49 43 32 19 12 1 337 344 345 345 340 337 334 329 324 317 314 308 304 313 307 306 298 294 303 309 312 306
178 176 155 136 130 117 99 97 86 74 60 60 60 52 44 41 30 17 8 354 351 353 348 334 334 335 332 330 325 331 321 319 310 324 304 309 304 299 290 297 313 302 308
173 176 151 136 121 105 96 81 77 78 69 62 54 53 42 32 23 16 9 356 341 342 334 337 337 337 333 333 329 330 322 321 334 323 317 310 310 306 325 315 303 293 293
182 175 144 126 113 102 91 80 67 65 56 57 55 50 33 27 18 8 352 348 337 336 338 334 335 334 333 333 329 328 321 335 324 321 312 314 317 323 315 306 297 300 299
185 163 138 126 116 104 80 71 64 64 53 58 48 38 27 17 10 360 344 335 328 325 333 333 334 333 331 326 325 315 317 322 318 314 330 320 319 312 303 296 303 295 288
159 138 126 124 111 94 81 69 57 52 50 55 49 33 22 10 357 344 332 335 339 340 337 336 332 327 324 324 313 315 319 316 314 322 323 316 316 307 305 306 300 297 293
159 135 112 110 104 97 84 68 58 56 69 59 42 28 10 358 340 330 336 338 335 328 329 329 326 325 323 319 323 324 321 321 318 320 317 313 309 312 313 306 308 303 310
128 129 124 122 122 99 84 76 67 55 54 54 41 13 346 340 328 331 330 318 320 327 323 324 324 321 322 326 330 324 322 318 320 319 315 308 308 311 312 314 310 313 308
137 132 131 134 116 109 103 87 71 65 59 35 16 353 353 344 335 323 319 321 327 327 323 323 321 325 324 326 327 328 320 319 320 316 312 309 309 309 313 311 311 308 312
143 138 142 130 128 129 132 126 112 86 78 63 9 360 352 332 310 317 330 333 326 317 324 324 325 319 318 321 325 325 320 320 313 306 306 306 306 311 304 304 308 305 303
137 138 133 127 129 113 103 98 70 53 31 6 11 355 326 315 324 324 317 315 322 326 321 316 312 310 311 320 325 325 321 310 302 301 302 303 307 305 309 310 314 305 293
139 137 133 118 108 102 111 103 69 40 19 359 340 327 329 321 316 320 324 324 323 318 312 309 310 307 308 321 324 326 317 308 306 305 308 308 308 307 315 317 310 304 303
112 118 116 110 109 85 90 85 46 20 353 333 325 321 312 313 324 311 314 304 304 307 309 308 301 305 312 313 322 325 316 311 312 311 307 308 310 312 322 321 315 314 310
117 114 110 108 110 112 64 41 1 342 320 313 312 312 318 311 292 298 293 305 308 302 301 304 313 309 303 309 321 324 319 316 314 315 312 306 312 316 326 319 319 307 310
123 124 125 116 97 72 66 350 322 313 312 322 319 315 308 311 307 295 301 298 298 302 310 314 310 305 302 312 318 320 322 322 321 314 309 307 326 328 324 324 316 318 320
132 109 116 122 128 93 58 331 301 317 330 330 323 310 302 289 287 295 302 307 307 311 311 307 306 310 315 312 313 316 318 322 321 313 309 329 326 324 321 316 322 321 311
128 124 138 129 101 45 302 274 322 335 342 321 301 292 290 306 296 288 290 290 307 303 302 303 311 312 315 314 311 315 316 320 319 308 322 322 322 318 315 318 317 311 307
144 124 105 106 274 314 340 337 331 332 309 292 285 285 289 283 296 282 287 300 293 293 306 310 312 315 315 314 320 325 324 320 323 331 324 319 320 319 318 318 315 312 309
124 122 120 7 323 338 325 321 320 304 289 292 300 303 304 294 306 304 302 297 302 310 313 316 316 313 316 317 324 323 323 328 335 326 316 319 319 320 320 317 315 312 311